This is the latest recevied weather packets stored in our database for station/object N5JXS. If no packets are shown the sender has not sent any weather packets the latest 10 day(s).
| Time | Temp. | Humidity | Pressure | Rain* | Wind** | Luminosity | Snow |
|---|---|---|---|---|---|---|---|
| 1787890492 | 16.67° C | 64% | 1030.2 hPa | 0 mm | - | 0 W/m² | - |
| 1787890187 | 16.67° C | 64% | 1030.3 hPa | 0 mm | - | 0 W/m² | - |
| 1787889882 | 16.67° C | 65% | 1030.5 hPa | 0 mm | - | 0 W/m² | - |
| 1787889577 | 16.67° C | 64% | 1030.2 hPa | 0 mm | - | 0 W/m² | - |
| 1787889272 | 16.67° C | 65% | 1030.3 hPa | 0 mm | - | 0 W/m² | - |
| 1787888971 | 16.67° C | 66% | 1030.6 hPa | 0 mm | - | 0 W/m² | - |
| 1787888666 | 16.67° C | 67% | 1030.7 hPa | 0 mm | - | 0 W/m² | - |
| 1787888362 | 16.67° C | 67% | 1030.3 hPa | 0 mm | - | 0 W/m² | - |
| 1787888057 | 17.22° C | 67% | 1030.6 hPa | 0 mm | - | 0 W/m² | - |
| 1787887753 | 17.78° C | 63% | 1030.5 hPa | 0 mm | - | 0 W/m² | - |
| 1787887448 | 17.78° C | 63% | 1030.5 hPa | 0 mm | - | 0 W/m² | - |
| 1787887143 | 17.22° C | 63% | 1030.5 hPa | 0 mm | - | 0 W/m² | - |
| 1787886838 | 17.78° C | 63% | 1030.3 hPa | 0 mm | - | 0 W/m² | - |
| 1787886537 | 17.78° C | 62% | 1030.3 hPa | 0 mm | - | 0 W/m² | - |
| 1787886233 | 17.78° C | 62% | 1030.2 hPa | 0 mm | - | 0 W/m² | - |
| 1787885932 | 17.78° C | 62% | 1030.3 hPa | 0 mm | - | 0 W/m² | - |
| 1787885630 | 18.33° C | 61% | 1030.1 hPa | 0 mm | - | 0 W/m² | - |
| 1787885330 | 18.33° C | 61% | 1030.2 hPa | 0 mm | - | 0 W/m² | - |
| 1787885024 | 17.78° C | 61% | 1030.1 hPa | 0 mm | - | 0 W/m² | - |
| 1787884720 | 17.78° C | 61% | 1030.2 hPa | 0 mm | - | 0 W/m² | - |
| 1787884415 | 17.78° C | 61% | 1030.1 hPa | 0 mm | - | 0 W/m² | - |
| 1787884110 | 17.78° C | 60% | 1030.1 hPa | 0 mm | - | 0 W/m² | - |
| 1787883806 | 18.33° C | 60% | 1030.1 hPa | 0 mm | - | 0 W/m² | - |
| 1787883502 | 18.33° C | 55% | 1030.2 hPa | 0 mm | - | 0 W/m² | - |
| 1787883201 | 18.33° C | 53% | 1030.1 hPa | 0 mm | - | 0 W/m² | - |
* Rain latest hour (hover to see other rain measurements)
** Current wind speed in m/s (hover to see current wind gust speed)